sat.trackr.live / text

‹ back to catalog

STARLINK-4298

NORAD 53177 · 2022-083AX

PAYLOAD ACTIVE UNKNOWN

§ Identity

Operator
Country
US
Launch date
2022-07-17
Launch site
AFETR
Launch vehicle
Mass (kg)
RCS (m²)

Purposes: comms

External: N2YO · Heavens-Above · Gunter

§ Orbital elements

Epoch: 2026-09-19T19:49:05.569824Z

Period
93.83 min
Inclination
53.1608°
Eccentricity
0.0001457
Mean motion
15.34686421 rev/d
Perigee alt
460.9 km
Apogee alt
462.8 km
Semi-major
6,840.0 km
B*
-1.8691e-3
RAAN
335.2177°
Arg perigee
53.0783°
Mean anomaly
307.0353°
Rev number
23,117

§ Raw data

STARLINK-42981 53177U 22083AX  26262.82575891 -.00063573  00000+0 -18691-2 0  99932 53177  53.1608 335.2177 0001457  53.0783 307.0353 15.34686421231174

JSON: /api/v1/satellites/53177 · /tle

For live sub-satellite position, see the globe view (requires WebGL).

§ Visibility from observer

Set your observer location to see the next 7 days of passes ≥ 10°. The values pass through the URL so the page stays shareable.

No JS? Fill the form by hand. The geolocation button needs JavaScript.